sat.trackr.live / text

‹ back to catalog

TOMORROW-R2

NORAD 56962 · 2023-084AG

PAYLOAD ACTIVE UNKNOWN

§ Identity

Operator
Country
US
Launch date
2023-06-12
Launch site
AFWTR
Launch vehicle
Mass (kg)
RCS (m²)

External: N2YO · Heavens-Above · Gunter

§ Orbital elements

Epoch: 2026-06-27T01:37:57.608832Z

Period
87.85 min
Inclination
97.5949°
Eccentricity
0.0011960
Mean motion
16.39248811 rev/d
Perigee alt
160.0 km
Apogee alt
175.6 km
Semi-major
6,545.9 km
B*
5.6747e-4
RAAN
343.9369°
Arg perigee
262.0269°
Mean anomaly
97.9672°
Rev number
17,065

§ Raw data

TOMORROW-R21 56962U 23084AG  26178.06802788  .06590774  26690-5  56747-3 0  99962 56962  97.5949 343.9369 0011960 262.0269  97.9672 16.39248811170656

JSON: /api/v1/satellites/56962 · /tle

For live sub-satellite position, see the globe view (requires WebGL).

§ Visibility from observer

Set your observer location to see the next 7 days of passes ≥ 10°. The values pass through the URL so the page stays shareable.

No JS? Fill the form by hand. The geolocation button needs JavaScript.

§ Radio — SatNOGS DB

ModeDescriptionDownlinkUplink
FSK Telemetry 400.500 MHz

1 transmitter · refreshed weekly from db.satnogs.org